Time,TemperatureF,DewpointF,PressureIn,WindDirection,WindDirectionDegrees,WindSpeedMPH,WindSpeedGustMPH,Humidity,HourlyPrecipIn,Conditions,Clouds,dailyrainin,SoftwareType,DateUTC
2013-01-07 00:00:00,41.0,33.0,29.98,West,270,20.0,22.0,73,-99.99,,,-99.99,,2013-01-07 05:00:00,
2013-01-07 00:22:00,41.0,33.0,29.98,West,270,20.0,22.0,73,-99.99,,,-99.99,,2013-01-07 05:22:00,
2013-01-07 00:32:00,41.0,33.0,29.98,West,270,20.0,22.0,73,-99.99,,,-99.99,,2013-01-07 05:32:00,
2013-01-07 00:42:00,41.0,33.0,29.98,West,270,20.0,22.0,73,-99.99,,,-99.99,,2013-01-07 05:42:00,
2013-01-07 00:52:00,41.0,33.0,29.98,West,270,20.0,22.0,73,-99.99,,,-99.99,,2013-01-07 05:52:00,
2013-01-07 01:00:00,40.0,30.0,30.00,West,280,18.0,21.0,68,-99.99,,,-99.99,,2013-01-07 06:00:00,
2013-01-07 01:22:00,40.0,30.0,30.00,West,280,18.0,21.0,68,-99.99,,,-99.99,,2013-01-07 06:22:00,
2013-01-07 01:32:00,40.0,30.0,30.00,West,280,18.0,21.0,68,-99.99,,,-99.99,,2013-01-07 06:32:00,
2013-01-07 01:42:00,40.0,30.0,30.00,West,280,18.0,21.0,68,-99.99,,,-99.99,,2013-01-07 06:42:00,
2013-01-07 01:52:00,40.0,30.0,30.00,West,280,18.0,21.0,68,-99.99,,,-99.99,,2013-01-07 06:52:00,
2013-01-07 02:00:00,39.0,30.0,30.02,WNW,300,17.0,18.0,71,-99.99,,,-99.99,,2013-01-07 07:00:00,
2013-01-07 02:22:00,39.0,30.0,30.02,WNW,300,17.0,18.0,71,-99.99,,,-99.99,,2013-01-07 07:22:00,
2013-01-07 02:32:00,39.0,30.0,30.02,WNW,300,17.0,18.0,71,-99.99,,,-99.99,,2013-01-07 07:32:00,
2013-01-07 02:42:00,39.0,30.0,30.02,WNW,300,17.0,18.0,71,-99.99,,,-99.99,,2013-01-07 07:42:00,
2013-01-07 02:52:00,39.0,30.0,30.02,WNW,300,17.0,18.0,71,-99.99,,,-99.99,,2013-01-07 07:52:00,
2013-01-07 03:00:00,38.0,30.0,30.03,WNW,290,14.0,15.0,71,-99.99,,,-99.99,,2013-01-07 08:00:00,
2013-01-07 03:22:00,38.0,30.0,30.03,WNW,290,14.0,15.0,71,-99.99,,,-99.99,,2013-01-07 08:22:00,
2013-01-07 03:32:00,38.0,30.0,30.03,WNW,290,14.0,15.0,71,-99.99,,,-99.99,,2013-01-07 08:32:00,
2013-01-07 03:42:00,38.0,30.0,30.03,WNW,290,14.0,15.0,71,-99.99,,,-99.99,,2013-01-07 08:42:00,
2013-01-07 03:52:00,38.0,30.0,30.03,WNW,290,14.0,15.0,71,-99.99,,,-99.99,,2013-01-07 08:52:00,
2013-01-07 04:00:00,39.0,29.0,30.03,WNW,290,14.0,16.0,67,-99.99,,,-99.99,,2013-01-07 09:00:00,
2013-01-07 04:22:00,39.0,29.0,30.03,WNW,290,14.0,16.0,67,-99.99,,,-99.99,,2013-01-07 09:22:00,
2013-01-07 04:32:00,39.0,29.0,30.03,WNW,290,14.0,16.0,67,-99.99,,,-99.99,,2013-01-07 09:32:00,
2013-01-07 04:42:00,39.0,29.0,30.03,WNW,290,14.0,16.0,67,-99.99,,,-99.99,,2013-01-07 09:42:00,
2013-01-07 04:52:00,39.0,29.0,30.03,WNW,290,14.0,16.0,67,-99.99,,,-99.99,,2013-01-07 09:52:00,
2013-01-07 05:00:00,38.0,29.0,30.05,WNW,300,20.0,22.0,68,-99.99,,,-99.99,,2013-01-07 10:00:00,
2013-01-07 05:22:00,38.0,29.0,30.05,WNW,300,20.0,22.0,68,-99.99,,,-99.99,,2013-01-07 10:22:00,
2013-01-07 05:32:00,38.0,29.0,30.05,WNW,300,20.0,22.0,68,-99.99,,,-99.99,,2013-01-07 10:32:00,
2013-01-07 05:42:00,38.0,29.0,30.05,WNW,300,20.0,22.0,68,-99.99,,,-99.99,,2013-01-07 10:42:00,
2013-01-07 05:52:00,38.0,29.0,30.05,WNW,300,20.0,22.0,68,-99.99,,,-99.99,,2013-01-07 10:52:00,
2013-01-07 06:00:00,38.0,30.0,30.08,WNW,300,21.0,23.0,71,-99.99,,,-99.99,,2013-01-07 11:00:00,
2013-01-07 06:22:00,38.0,30.0,30.08,WNW,300,21.0,23.0,71,-99.99,,,-99.99,,2013-01-07 11:22:00,
2013-01-07 06:32:00,38.0,30.0,30.08,WNW,300,21.0,23.0,71,-99.99,,,-99.99,,2013-01-07 11:32:00,
2013-01-07 06:42:00,38.0,30.0,30.08,WNW,300,21.0,23.0,71,-99.99,,,-99.99,,2013-01-07 11:42:00,
2013-01-07 06:52:00,38.0,30.0,30.08,WNW,300,21.0,23.0,71,-99.99,,,-99.99,,2013-01-07 11:52:00,
2013-01-07 07:00:00,38.0,31.0,30.11,WNW,300,16.0,17.0,75,-99.99,,,-99.99,,2013-01-07 12:00:00,
2013-01-07 07:22:00,38.0,31.0,30.11,WNW,300,16.0,17.0,75,-99.99,,,-99.99,,2013-01-07 12:22:00,
2013-01-07 07:32:00,38.0,31.0,30.11,WNW,300,16.0,17.0,75,-99.99,,,-99.99,,2013-01-07 12:32:00,
2013-01-07 07:42:00,38.0,31.0,30.11,WNW,300,16.0,17.0,75,-99.99,,,-99.99,,2013-01-07 12:42:00,
2013-01-07 07:52:00,38.0,31.0,30.11,WNW,300,16.0,17.0,75,-99.99,,,-99.99,,2013-01-07 12:52:00,
2013-01-07 08:00:00,38.0,30.0,30.15,WNW,300,18.0,21.0,71,-99.99,,,-99.99,,2013-01-07 13:00:00,
2013-01-07 08:22:00,38.0,30.0,30.15,WNW,300,18.0,21.0,71,-99.99,,,-99.99,,2013-01-07 13:22:00,
2013-01-07 08:32:00,38.0,30.0,30.15,WNW,300,18.0,21.0,71,-99.99,,,-99.99,,2013-01-07 13:32:00,
2013-01-07 08:42:00,38.0,30.0,30.15,WNW,300,18.0,21.0,71,-99.99,,,-99.99,,2013-01-07 13:42:00,
2013-01-07 08:52:00,38.0,30.0,30.15,WNW,300,18.0,21.0,71,-99.99,,,-99.99,,2013-01-07 13:52:00,
2013-01-07 09:00:00,38.0,29.0,30.19,NW,310,16.0,17.0,69,-99.99,,,-99.99,,2013-01-07 14:00:00,
2013-01-07 09:22:00,38.0,29.0,30.19,NW,310,16.0,17.0,69,-99.99,,,-99.99,,2013-01-07 14:22:00,
2013-01-07 09:32:00,38.0,29.0,30.19,NW,310,16.0,17.0,69,-99.99,,,-99.99,,2013-01-07 14:32:00,
2013-01-07 09:42:00,38.0,29.0,30.19,NW,310,16.0,17.0,69,-99.99,,,-99.99,,2013-01-07 14:42:00,
2013-01-07 09:53:00,38.0,29.0,30.19,NW,310,16.0,17.0,69,-99.99,,,-99.99,,2013-01-07 14:53:00,
2013-01-07 10:00:00,39.0,29.0,30.23,NW,320,18.0,20.0,67,-99.99,,,-99.99,,2013-01-07 15:00:00,
2013-01-07 10:22:00,39.0,29.0,30.23,NW,320,18.0,20.0,67,-99.99,,,-99.99,,2013-01-07 15:22:00,
2013-01-07 10:32:00,39.0,29.0,30.23,NW,320,18.0,20.0,67,-99.99,,,-99.99,,2013-01-07 15:32:00,
2013-01-07 10:42:00,39.0,29.0,30.23,NW,320,18.0,20.0,67,-99.99,,,-99.99,,2013-01-07 15:42:00,
2013-01-07 10:52:00,39.0,29.0,30.23,NW,320,18.0,20.0,67,-99.99,,,-99.99,,2013-01-07 15:52:00,
2013-01-07 11:00:00,41.0,28.0,30.24,NNW,340,16.0,17.0,59,-99.99,,,-99.99,,2013-01-07 16:00:00,
2013-01-07 11:22:00,41.0,28.0,30.24,NNW,340,16.0,17.0,59,-99.99,,,-99.99,,2013-01-07 16:22:00,
2013-01-07 11:32:00,41.0,28.0,30.24,NNW,340,16.0,17.0,59,-99.99,,,-99.99,,2013-01-07 16:32:00,
2013-01-07 11:42:00,41.0,28.0,30.24,NNW,340,16.0,17.0,59,-99.99,,,-99.99,,2013-01-07 16:42:00,
2013-01-07 11:52:00,41.0,28.0,30.24,NNW,340,16.0,17.0,59,-99.99,,,-99.99,,2013-01-07 16:52:00,
2013-01-07 12:00:00,40.0,28.0,30.25,NNW,340,15.0,18.0,60,-99.99,,,-99.99,,2013-01-07 17:00:00,
2013-01-07 12:22:00,40.0,28.0,30.25,NNW,340,15.0,18.0,60,-99.99,,,-99.99,,2013-01-07 17:22:00,
2013-01-07 12:32:00,40.0,28.0,30.25,NNW,340,15.0,18.0,60,-99.99,,,-99.99,,2013-01-07 17:32:00,
2013-01-07 12:42:00,40.0,28.0,30.25,NNW,340,15.0,18.0,60,-99.99,,,-99.99,,2013-01-07 17:42:00,
2013-01-07 12:52:00,40.0,28.0,30.25,NNW,340,15.0,18.0,60,-99.99,,,-99.99,,2013-01-07 17:52:00,
2013-01-07 13:00:00,41.0,27.0,30.28,NNW,330,13.0,14.0,57,-99.99,,,-99.99,,2013-01-07 18:00:00,
2013-01-07 13:22:00,41.0,27.0,30.28,NNW,330,13.0,14.0,57,-99.99,,,-99.99,,2013-01-07 18:22:00,
2013-01-07 13:32:00,41.0,27.0,30.28,NNW,330,13.0,14.0,57,-99.99,,,-99.99,,2013-01-07 18:32:00,
2013-01-07 13:42:00,41.0,27.0,30.28,NNW,330,13.0,14.0,57,-99.99,,,-99.99,,2013-01-07 18:42:00,
2013-01-07 13:52:00,41.0,27.0,30.28,NNW,330,13.0,14.0,57,-99.99,,,-99.99,,2013-01-07 18:52:00,
2013-01-07 14:00:00,44.0,28.0,30.30,North,350,7.0,7.0,54,-99.99,,,-99.99,,2013-01-07 19:00:00,
2013-01-07 14:22:00,44.0,28.0,30.30,North,350,7.0,7.0,54,-99.99,,,-99.99,,2013-01-07 19:22:00,
2013-01-07 14:32:00,44.0,28.0,30.30,North,350,7.0,7.0,54,-99.99,,,-99.99,,2013-01-07 19:32:00,
2013-01-07 14:42:00,44.0,28.0,30.30,North,350,7.0,7.0,54,-99.99,,,-99.99,,2013-01-07 19:42:00,
2013-01-07 14:52:00,44.0,28.0,30.30,North,350,7.0,7.0,54,-99.99,,,-99.99,,2013-01-07 19:52:00,
2013-01-07 15:00:00,39.0,28.0,30.34,ENE,60,14.0,14.0,65,-99.99,,,-99.99,,2013-01-07 20:00:00,
2013-01-07 15:22:00,39.0,28.0,30.34,ENE,60,14.0,14.0,65,-99.99,,,-99.99,,2013-01-07 20:22:00,
2013-01-07 15:32:00,39.0,28.0,30.34,ENE,60,14.0,14.0,65,-99.99,,,-99.99,,2013-01-07 20:32:00,
2013-01-07 15:42:00,39.0,28.0,30.34,ENE,60,14.0,14.0,65,-99.99,,,-99.99,,2013-01-07 20:42:00,
2013-01-07 15:52:00,39.0,28.0,30.34,ENE,60,14.0,14.0,65,-99.99,,,-99.99,,2013-01-07 20:52:00,
2013-01-07 16:00:00,38.0,27.0,30.36,ENE,60,11.0,13.0,62,-99.99,,,-99.99,,2013-01-07 21:00:00,
2013-01-07 16:22:00,38.0,27.0,30.36,ENE,60,11.0,13.0,62,-99.99,,,-99.99,,2013-01-07 21:22:00,
2013-01-07 16:32:00,38.0,27.0,30.36,ENE,60,11.0,13.0,62,-99.99,,,-99.99,,2013-01-07 21:32:00,
2013-01-07 16:42:00,38.0,27.0,30.36,ENE,60,11.0,13.0,62,-99.99,,,-99.99,,2013-01-07 21:42:00,
2013-01-07 16:52:00,38.0,27.0,30.36,ENE,60,11.0,13.0,62,-99.99,,,-99.99,,2013-01-07 21:52:00,
2013-01-07 17:00:00,38.0,28.0,30.38,ENE,60,9.0,10.0,68,-99.99,,,-99.99,,2013-01-07 22:00:00,
2013-01-07 17:22:00,38.0,28.0,30.38,ENE,60,9.0,10.0,68,-99.99,,,-99.99,,2013-01-07 22:22:00,
2013-01-07 17:32:00,38.0,28.0,30.38,ENE,60,9.0,10.0,68,-99.99,,,-99.99,,2013-01-07 22:32:00,
2013-01-07 17:42:00,38.0,28.0,30.38,ENE,60,9.0,10.0,68,-99.99,,,-99.99,,2013-01-07 22:42:00,
2013-01-07 17:52:00,38.0,28.0,30.38,ENE,60,9.0,10.0,68,-99.99,,,-99.99,,2013-01-07 22:52:00,
2013-01-07 18:00:00,38.0,30.0,30.40,ENE,70,9.0,10.0,72,-99.99,,,-99.99,,2013-01-07 23:00:00,
2013-01-07 18:22:00,38.0,30.0,30.40,ENE,70,9.0,10.0,72,-99.99,,,-99.99,,2013-01-07 23:22:00,
2013-01-07 18:32:00,38.0,30.0,30.40,ENE,70,9.0,10.0,72,-99.99,,,-99.99,,2013-01-07 23:32:00,
2013-01-07 18:42:00,38.0,30.0,30.40,ENE,70,9.0,10.0,72,-99.99,,,-99.99,,2013-01-07 23:42:00,
2013-01-07 18:52:00,38.0,30.0,30.40,ENE,70,9.0,10.0,72,-99.99,,,-99.99,,2013-01-07 23:52:00,
2013-01-07 19:00:00,37.0,30.0,30.41,East,100,10.0,11.0,76,-99.99,,,-99.99,,2013-01-08 00:00:00,
2013-01-07 19:22:00,37.0,30.0,30.41,East,100,10.0,11.0,76,-99.99,,,-99.99,,2013-01-08 00:22:00,
2013-01-07 19:32:00,37.0,30.0,30.41,East,100,10.0,11.0,76,-99.99,,,-99.99,,2013-01-08 00:32:00,
2013-01-07 19:42:00,37.0,30.0,30.41,East,100,10.0,11.0,76,-99.99,,,-99.99,,2013-01-08 00:42:00,
2013-01-07 19:52:00,37.0,30.0,30.41,East,100,10.0,11.0,76,-99.99,,,-99.99,,2013-01-08 00:52:00,
2013-01-07 20:00:00,36.0,30.0,30.41,ESE,110,13.0,13.0,77,-99.99,,,-99.99,,2013-01-08 01:00:00,
2013-01-07 20:22:00,36.0,30.0,30.41,ESE,110,13.0,13.0,77,-99.99,,,-99.99,,2013-01-08 01:22:00,
2013-01-07 20:32:00,36.0,30.0,30.41,ESE,110,13.0,13.0,77,-99.99,,,-99.99,,2013-01-08 01:32:00,
2013-01-07 20:42:00,36.0,30.0,30.41,ESE,110,13.0,13.0,77,-99.99,,,-99.99,,2013-01-08 01:42:00,
2013-01-07 20:52:00,36.0,30.0,30.41,ESE,110,13.0,13.0,77,-99.99,,,-99.99,,2013-01-08 01:52:00,
2013-01-07 21:00:00,36.0,31.0,30.40,ESE,110,13.0,14.0,81,-99.99,,,-99.99,,2013-01-08 02:00:00,
2013-01-07 21:22:00,36.0,31.0,30.40,ESE,110,13.0,14.0,81,-99.99,,,-99.99,,2013-01-08 02:22:00,
2013-01-07 21:32:00,36.0,31.0,30.40,ESE,110,13.0,14.0,81,-99.99,,,-99.99,,2013-01-08 02:32:00,
2013-01-07 21:42:00,36.0,31.0,30.40,ESE,110,13.0,14.0,81,-99.99,,,-99.99,,2013-01-08 02:42:00,
2013-01-07 21:52:00,36.0,31.0,30.40,ESE,110,13.0,14.0,81,-99.99,,,-99.99,,2013-01-08 02:52:00,
2013-01-07 22:00:00,38.0,33.0,30.40,SE,130,15.0,16.0,80,-99.99,,,-99.99,,2013-01-08 03:00:00,
2013-01-07 22:22:00,38.0,33.0,30.40,SE,130,15.0,16.0,80,-99.99,,,-99.99,,2013-01-08 03:22:00,
2013-01-07 22:32:00,38.0,33.0,30.40,SE,130,15.0,16.0,80,-99.99,,,-99.99,,2013-01-08 03:32:00,
2013-01-07 22:42:00,38.0,33.0,30.40,SE,130,15.0,16.0,80,-99.99,,,-99.99,,2013-01-08 03:42:00,
2013-01-07 22:52:00,38.0,33.0,30.40,SE,130,15.0,16.0,80,-99.99,,,-99.99,,2013-01-08 03:52:00,
2013-01-07 23:00:00,40.0,33.0,30.39,SSE,160,16.0,18.0,75,-99.99,,,-99.99,,2013-01-08 04:00:00,
2013-01-07 23:22:00,40.0,33.0,30.39,SSE,160,16.0,18.0,75,-99.99,,,-99.99,,2013-01-08 04:22:00,
2013-01-07 23:32:00,40.0,33.0,30.39,SSE,160,16.0,18.0,75,-99.99,,,-99.99,,2013-01-08 04:32:00,
2013-01-07 23:42:00,40.0,33.0,30.39,SSE,160,16.0,18.0,75,-99.99,,,-99.99,,2013-01-08 04:42:00,
2013-01-07 23:52:00,40.0,33.0,30.39,SSE,160,16.0,18.0,75,-99.99,,,-99.99,,2013-01-08 04:52:00,